This demonstration page uses our WeatherBlox Daily Observations layout. Learn more.

Left ArrowRight Arrow

39.12711, -84.51439

Hourly Observations for January 9, 2017

Temp ( °F °C ) Dew Point ( °F °C ) Humidity (%) Winds ( mph kmh ) Pressure ( in mb ) Visibility ( mi km ) Precip ( " mm )
12:53 am 00:53 Cloudy 17 -8.3 8 -13.3 68 68 SSW 5 7 30.65 1038 10 16 0.00 0.00
1:53 am 01:53 Cloudy 17 -8.3 8 -13.3 68 68 S 5 7 30.63 1037 10 16 0.00 0.00
2:53 am 02:53 Partly Cloudy 18 -7.8 8 -13.3 65 65 S 3 6 30.64 1038 10 16 0.00 0.00
3:53 am 03:53 Mostly Clear 18 -7.8 8 -13.3 65 65 SSW 5 7 30.60 1036 10 16 0.00 0.00
4:53 am 04:53 Cloudy 19 -7.2 9 -12.8 65 65 S 9 15 30.59 1036 10 16 0.00 0.00
5:53 am 05:53 Cloudy 20 -6.7 9 -12.8 62 62 S 6 9 30.58 1035 10 16 0.00 0.00
6:53 am 06:53 Cloudy 20 -6.7 10 -12.2 65 65 SSW 9 15 30.54 1034 10 16 0.00 0.00
7:53 am 07:53 Cloudy 21 -6.1 11 -11.7 65 65 SSW 7 11 30.54 1034 10 16 0.00 0.00
8:53 am 08:53 Cloudy 22 -5.6 13 -10.6 68 68 S 9 15 30.55 1034 10 16 0.00 0.00
9:53 am 09:53 Cloudy 25 -3.9 14 -10 63 63 S 8 13 30.54 1034 10 16 0.00 0.00
10:53 am 10:53 Sunny 29 -1.7 15 -9.4 56 56 SSW 10 17 30.53 1034 10 16 0.00 0.00
11:53 am 11:53 Sunny 32 0 16 -8.9 52 52 SSW 10 17 30.50 1033 10 16 0.00 0.00
12:53 pm 12:53 Sunny 32 0 17 -8.3 54 54 SW 12 19 30.46 1032 10 16 0.00 0.00
1:53 pm 13:53 Sunny 33 0.6 17 -8.3 52 52 SW 12 19 30.45 1031 10 16 0.00 0.00
2:53 pm 14:53 Sunny 33 0.6 18 -7.8 54 54 SSW 13 20 30.45 1031 10 16 0.00 0.00
3:53 pm 15:53 Sunny 34 1.1 19 -7.2 54 54 SSW 8 13 30.43 1031 10 16 0.00 0.00
4:53 pm 16:53 Sunny 34 1.1 19 -7.2 54 54 S 8 13 30.41 1030 10 16 0.00 0.00
5:53 pm 17:53 Clear 34 1.1 19 -7.2 54 54 S 8 13 30.41 1030 10 16 0.00 0.00
6:53 pm 18:53 Mostly Cloudy 34 1.1 19 -7.2 54 54 S 8 13 30.42 1030 10 16 0.00 0.00
7:53 pm 19:53 Cloudy 33 0.6 20 -6.7 58 58 S 6 9 30.40 1030 10 16 0.00 0.00
8:53 pm 20:53 Mostly Cloudy 34 1.1 20 -6.7 56 56 S 8 13 30.38 1029 10 16 0.00 0.00
9:53 pm 21:53 Mostly Clear 35 1.7 19 -7.2 52 52 S 8 13 30.35 1028 10 16 0.00 0.00
10:53 pm 22:53 Mostly Clear 36 2.2 19 -7.2 50 50 S 8 13 30.33 1027 10 16 0.00 0.00
11:53 pm 23:53 Mostly Cloudy 36 2.2 19 -7.2 50 50 S 9 15 30.32 1027 10 16 0.00 0.00

Powered by AerisWeather